• Processing (Info)

  • MPEC 2014-A34 : 2014 AG16

    The following Minor Planet Electronic Circular may be linked-to from your own Web pages, but must not otherwise be redistributed electronically.

    A form allowing access to any MPEC is at the bottom of this page.


    Read MPEC 2014-A33 Read MPEC 2014-A35


    M.P.E.C. 2014-A34                                Issued 2014 Jan. 5, 19:23 UT
    
         The Minor Planet Electronic Circulars contain information on unusual
             minor planets and routine data on comets.  They are published
       on behalf of Commission 20 of the International Astronomical Union by the
              Minor Planet Center, Smithsonian Astrophysical Observatory,
                              Cambridge, MA 02138, U.S.A.
    
                 Prepared using the Tamkin Foundation Computer Network
    
                                  MPC@CFA.HARVARD.EDU
                URL https://www.minorplanetcenter.net/    ISSN 1523-6714
    
                                       2014 AG16
    
    Observations:
         K14A16G* C2014 01 04.29828 09 26 29.68 +40 57 36.9          18.0 VqEA034703
         K14A16G  C2014 01 04.30484 09 26 28.31 +40 56 51.4          18.6 VqEA034703
         K14A16G  C2014 01 04.31139 09 26 26.91 +40 56 05.7          18.5 VqEA034703
         K14A16G  C2014 01 04.31795 09 26 25.52 +40 55 19.6          18.4 VqEA034703
         K14A16G  C2014 01 04.33840 09 26 21.05 +40 52 55.7          18.4 VqEA034703
         K14A16G  C2014 01 04.33901 09 26 20.94 +40 52 51.2          18.5 VqEA034703
         K14A16G  C2014 01 04.33963 09 26 20.70 +40 52 46.5          18.4 VqEA034703
         K14A16G  C2014 01 04.34025 09 26 20.61 +40 52 42.6          18.6 VqEA034703
         K14A16G  C2014 01 04.36107 09 26 16.05 +40 50 15.8          18.1 VqEA034703
         K14A16G  C2014 01 04.36181 09 26 15.84 +40 50 10.2          18.4 VqEA034703
         K14A16G  C2014 01 04.36254 09 26 15.68 +40 50 04.9          18.1 VqEA034703
         K14A16G  C2014 01 04.36328 09 26 15.48 +40 49 59.2          18.1 VqEA034703
         K14A16G  C2014 01 04.42654 09 26 00.28 +40 42 27.9                oEA034711
         K14A16G  C2014 01 04.42899 09 25 59.73 +40 42 10.0                oEA034711
         K14A16G  C2014 01 04.43169 09 25 59.13 +40 41 50.5                oEA034711
         K14A16G  C2014 01 04.45733 09 25 52.74 +40 38 22.1          17.9 RqEA034H36
         K14A16G  C2014 01 04.45817 09 25 52.56 +40 38 15.6          18.4 RqEA034H36
         K14A16G  C2014 01 04.46067 09 25 52.06 +40 37 57.2          18.5 RqEA034H36
         K14A16G KC2014 01 04.89439 09 24 51.59 +39 46 01.5                qEA034J95
         K14A16G KC2014 01 04.89793 09 24 51.00 +39 45 37.9                qEA034J95
         K14A16G KC2014 01 04.90172 09 24 50.34 +39 45 12.9          18.8 RqEA034J95
         K14A16G KC2014 01 04.96624 09 24 38.78 +39 37 55.1          18.2 RoEA034J16
         K14A16G KC2014 01 04.97072 09 24 38.12 +39 37 25.8                qEA034Z72
         K14A16G KC2014 01 04.97180 09 24 37.81 +39 37 17.9          18.2 RoEA034J16
         K14A16G KC2014 01 04.97744 09 24 36.75 +39 36 40.2          17.8 RoEA034J16
         K14A16G KC2014 01 05.00573 09 24 31.63 +39 33 32.2                qEA034Z72
         K14A16G KC2014 01 05.07418 09 24 18.53 +39 25 49.7                qEA034Z72
         K14A16G KC2014 01 05.09382 09 24 14.69 +39 23 36.4                qEA034Z72
         K14A16G KC2014 01 05.15129809 24 02.53 +39 17 18.2                uEA034I93
         K14A16G KC2014 01 05.15566909 24 01.65 +39 16 48.5          18.4 VuEA034I93
         K14A16G KC2014 01 05.15971709 24 00.86 +39 16 20.4          18.4 VuEA034I93
         K14A16G  C2014 01 05.27485 09 23 51.29 +39 03 09.4          18.7  rEA034718
         K14A16G  C2014 01 05.27910 09 23 50.46 +39 02 42.0          18.7  rEA034718
         K14A16G  C2014 01 05.28336 09 23 49.78 +39 02 14.9          18.6  rEA034718
         K14A16G  C2014 01 05.63691 09 22 54.44 +38 23 15.2          19.1 VqEA034900
         K14A16G  C2014 01 05.64405 09 22 53.04 +38 22 30.0          18.8 VqEA034900
         K14A16G  C2014 01 05.65119 09 22 51.63 +38 21 44.1          18.7 VqEA034900
    
    Observer details:
    703 Catalina Sky Survey.  Observer A. Boattini.  Measurers A. Boattini,
        E. J. Christensen, A. R. Gibbs, A. D. Grauer, R. E. Hill, J. A. Johnson,
        R. A. Kowalski, S. M. Larson, F. C. Shelly.  0.68-m Schmidt + CCD.
    711 McDonald Observatory.  Observer J. G. Ries.  2.1-m reflector + CCD + focal
        reducer.
    718 Tooele.  Observer P. Wiggins.  0.35-m f/5.5 Schmidt-Cassegrain + CCD.
    900 Moriyama.  Observer Y. Ikari.  0.26-m f/7.0 reflector + CCD.
    H36 Sandlot Observatory, Scranton.  Observer G. Hug.  0.56-m reflector + CCD.
    I93 St Pardon de Conques.  Observer F. Losse.  0.40-m f/3.7 reflector + CCD.
    J16 An Carraig Observatory, Loughinisland.  Observer K. Rooney.  0.4-m f/6.8
        Cassegrain + CCD.
    J95 Great Shefford.  Observer P. Birtwhistle.  0.40-m f/6.0 Schmidt-Cassegrain
        + CCD.
    Z72 Cademuir Observatory, Dalkey.  Observer A. White.  0.23-m f/10
        Schmidt-Cassegrain + CCD + f/6.3 focal reducer.
    
    Orbital elements:
    2014 AG16                                                Earth MOID = 0.0489 AU
    Epoch 2013 Nov. 4.0 TT = JDT 2456600.5                  MPC
    M 347.02649              (2000.0)            P               Q
    n   0.46349300     Peri.  118.20812     +0.39398235     -0.91728439
    a   1.6536386      Node   308.47102     +0.81516167     +0.37789033
    e   0.4088868      Incl.    4.25050     +0.42460495     +0.12565126
    P   2.13           H   22.6           G   0.15           U   6
    Residuals in seconds of arc
    140104 703  0.3-  0.1-    140104 711  0.1-  0.5-    140105 Z72  0.1+  0.2-
    140104 703  0.0   0.3+    140104 711  0.1-  0.3-    140105 Z72  0.1-  0.1+
    140104 703  0.1+  0.4+    140104 H36  0.0   0.7-    140105 I93  0.4-  0.5-
    140104 703  0.4+  0.3+    140104 H36  0.0   1.0-    140105 I93  0.5-  0.1+
    140104 703  0.4+  0.3+    140104 H36  0.3+  0.9-    140105 I93  0.3-  0.1+
    140104 703  0.6+  0.1+    140104 J95  0.3-  0.1+    140105 718  0.3+  0.7-
    140104 703  0.5-  0.2-    140104 J95  0.1-  0.1+    140105 718  0.1-  0.4-
    140104 703  0.0   0.2+    140104 J95  0.2-  0.3+    140105 718  1.2+  0.2+
    140104 703  0.5+  0.8+    140104 J16  0.2-  0.3+    140105 900  0.4+  0.3-
    140104 703  0.0   0.4+    140104 Z72  0.0   0.5-    140105 900  0.2+  0.2+
    140104 703  0.0   0.3+    140104 J16  0.3+  0.3+    140105 900  0.0   0.2+
    140104 703  0.4-  0.1-    140104 J16  0.1-  0.4+
    140104 711  0.1-  0.4-    140105 Z72  0.1-  0.5+
    
    Ephemeris:
    2014 AG16                a,e,i = 1.65, 0.41, 4                   q = 0.9775
    Date    TT    R. A. (2000) Decl.     Delta      r     Elong.  Phase     V
    2013 12 06    20 34 37.9 +41 33 07   0.07229 0.9785    82.5    93.3    20.2
    ...
    2013 12 21    14 36 26.5 +81 21 34   0.04946 0.9999   107.7    69.6    18.5
    ...
    2013 12 29    09 53 51.0 +56 55 04   0.05777 1.0218   130.5    47.1    18.2
    ...
    2014 01 04    09 27 15.3 +41 34 10   0.07233 1.0425   143.7    34.0    18.4
    2014 01 05    09 24 28.7 +39 34 55   0.07524 1.0462   145.5    32.1    18.4
    2014 01 06    09 21 56.9 +37 44 02   0.07827 1.0501   147.3    30.4    18.5
    ...
    2014 01 12    09 10 11.2 +29 03 34   0.09853 1.0748   156.9    21.0    18.8
    ...
    2014 01 20    08 59 25.9 +21 54 28   0.1304  1.1117   167.7    10.9    19.1
    ...
    2014 02 04    08 47 20.3 +15 17 48   0.2051  1.1902   174.6     4.5    19.9
    
    A. U. Tomatic                (C) Copyright 2014 MPC           M.P.E.C. 2014-A34
    

    Read MPEC 2014-A33 Read MPEC 2014-A35


    MPEC number:

    Enter an MPEC number in one of the following forms:

    • 1997-B01 (the full form)
    • J97B01 (the packed version of the full form)
    • B01 (the abbreviated form)